Location: East Guldeford
(50.9500°N, 0.7500°E)
Time: 15:58:21
(UTC+00:00)

Cosmos 1818 - Visible Passes

Search period start: 28 September 2021 00:00
Search period end: 08 October 2021 00:00
Orbit: 771 x 802 km, 65.0° (Epoch: 27 September)

Date Brightness Start Highest point End Pass type
(mag) Time Alt. Az. Time Alt. Az. Time Alt. Az.
28 Sep 5.7 02:12:14 17° ESE 02:12:55 17° ESE 02:16:21 10° ENE visible
28 Sep 3.6 03:52:54 30° SSW 03:55:42 83° SE 04:01:14 10° NE visible
29 Sep 6.1 01:41:31 12° E 01:41:31 12° E 01:43:22 10° E visible
29 Sep 3.8 03:22:11 46° S 03:23:41 65° SE 03:29:08 10° NE visible
29 Sep 4.4 05:02:51 11° W 05:07:37 36° NNW 05:12:42 10° NNE visible
30 Sep 4.1 02:51:25 50° SE 02:51:42 50° ESE 02:57:00 10° NE visible
30 Sep 4.2 04:32:04 20° W 04:35:25 42° NW 04:40:40 10° NE visible
01 Oct 4.7 02:20:35 37° E 02:20:35 37° E 02:24:50 10° NE visible
01 Oct 3.9 04:01:14 34° W 04:03:15 51° NW 04:08:38 10° NE visible
02 Oct 5.5 01:49:42 24° E 01:49:42 24° E 01:52:35 10° NE visible
02 Oct 3.6 03:30:21 57° W 03:31:08 63° NW 03:36:36 10° NE visible
02 Oct 5.0 05:11:18 10° WNW 05:15:43 24° NNW 05:20:10 10° NNE visible
03 Oct 6.0 01:18:47 16° ENE 01:18:47 16° ENE 01:20:13 10° ENE visible
03 Oct 3.6 02:59:26 73° N 02:59:26 73° N 03:04:34 10° NE visible
03 Oct 4.9 04:40:05 16° WNW 04:43:25 27° NNW 04:48:05 10° NNE visible
04 Oct 4.3 02:28:29 50° NE 02:28:29 50° NE 02:32:30 10° NE visible
04 Oct 4.7 04:09:08 24° WNW 04:11:09 31° NNW 04:16:01 10° NNE visible
05 Oct 5.2 01:57:30 32° NE 01:57:30 32° NE 02:00:25 10° NE visible
05 Oct 4.4 03:38:08 34° NW 03:38:55 35° NNW 03:43:58 10° NNE visible
05 Oct 5.4 05:20:07 10° NW 05:24:02 19° N 05:27:57 10° NE visible
06 Oct 5.8 01:26:29 21° NE 01:26:29 21° NE 01:28:17 10° NE visible
06 Oct 4.3 03:07:08 41° NNW 03:07:08 41° NNW 03:11:56 10° NE visible
06 Oct 5.3 04:47:46 10° WNW 04:51:41 20° NNW 04:55:44 10° NE visible
07 Oct 6.3 00:55:27 13° NE 00:55:27 13° NE 00:56:07 10° NE visible
07 Oct 4.7 02:36:06 39° N 02:36:06 39° N 02:39:55 10° NE visible
07 Oct 5.3 04:16:44 16° NW 04:19:21 22° NNW 04:23:34 10° NE visible
